Elm City, NC

7:37 PM EST on February 24, 2017 (GMT -0500)
Rocky Mount-Wilson Regional

Weather History for KRWI - June, 2013

Change the Weather History Date:

Monday, June 17, 2013

  Actual Average Record
Temperature  
Mean Temperature 80 °F -  
Max Temperature 88 °F 87 °F 101 °F (1981)
Min Temperature 71 °F 66 °F 50 °F (1961)
Cooling Degree Days 14    
Growing Degree Days 30 (Base 50)    
Moisture  
Dew Point 66 °F    
Average Humidity 65    
Maximum Humidity 76    
Minimum Humidity 53    
Precipitation  
Precipitation 0.00 in - - ()
Sea Level Pressure  
Sea Level Pressure 30.00 in    
Wind  
Wind Speed 9 mph (SSW)    
Max Wind Speed 12 mph    
Max Gust Speed 18 mph    
Visibility 10 miles    
Events      
Averages and records for this station are not official NWS values.
T = Trace of Precipitation, MM = Missing Value Source: NWS Daily Summary

Daily Weather History Graph

Daily Weather History Graph

Search for Another Location

Airport or City:

Trip Planner

Search our weather history database for the weather conditions in past years. The results will help you decide how hot, cold, wet, or windy it might be!

Date:

Astronomy

Jun. 17, 2013 Rise Set
Actual Time 5:54 AM EDT 8:30 PM EDT
Civil Twilight 5:24 AM EDT 9:00 PM EDT
Nautical Twilight 4:47 AM EDT 9:37 PM EDT
Astronomical Twilight 4:05 AM EDT 10:19 PM EDT
Moon 2:16 PM EDT (6/17) 1:18 AM EDT (6/17)
Length of Visible Light 15h 35m
Length of Day
14h 35m
First Quarter, 60% of the Moon is Illuminated
Jun 17
First Quarter
Jun 23
Full
Jun 30
Last Quarter
Jul 8
New
Jul 15
First Quarter

Hourly Weather History & Observations

Time (EDT) Temp. Heat Index Dew Point Humidity Pressure Visibility Wind Dir Wind Speed Gust Speed Precip Events Conditions
12:53 AM 73.9 °F - 64.0 °F 71% 30.05 in 10.0 mi SSW 9.2 mph 18.4 mph N/A   Clear
1:53 AM 73.0 °F - 64.0 °F 73% 30.04 in 10.0 mi SSW 10.4 mph - N/A   Clear
2:53 AM 72.0 °F - 64.0 °F 76% 30.04 in 10.0 mi SSW 10.4 mph - N/A   Clear
3:53 AM 72.0 °F - 63.0 °F 73% 30.03 in 10.0 mi SSW 8.1 mph - N/A   Clear
4:53 AM 71.1 °F - 63.0 °F 75% 30.03 in 10.0 mi SSW 5.8 mph - N/A   Clear
5:53 AM 71.1 °F - 63.0 °F 75% 30.04 in 10.0 mi SSW 8.1 mph - N/A   Clear
6:53 AM 72.0 °F - 63.0 °F 73% 30.04 in 10.0 mi SSW 8.1 mph - N/A   Clear
7:53 AM 73.9 °F - 64.0 °F 71% 30.04 in 10.0 mi SSW 9.2 mph - N/A   Clear
8:53 AM 77.0 °F - 64.0 °F 64% 30.04 in 10.0 mi SSW 10.4 mph - N/A   Clear
9:53 AM 79.0 °F - 64.9 °F 62% 30.04 in 10.0 mi SW 5.8 mph - N/A   Partly Cloudy
10:53 AM 80.1 °F 82.1 °F 66.0 °F 62% 30.02 in 10.0 mi SSW 9.2 mph - N/A   Clear
11:53 AM 84.0 °F 87.0 °F 68.0 °F 58% 30.02 in 10.0 mi South 9.2 mph - N/A   Clear
12:53 PM 84.9 °F 88.2 °F 68.0 °F 57% 30.00 in 10.0 mi SSW 10.4 mph - N/A   Clear
1:53 PM 87.1 °F 91.3 °F 69.1 °F 55% 30.00 in 10.0 mi SSW 8.1 mph - N/A   Partly Cloudy
2:53 PM 88.0 °F 92.1 °F 69.1 °F 53% 29.98 in 10.0 mi SW 8.1 mph - N/A   Partly Cloudy
3:53 PM 84.9 °F 87.6 °F 66.9 °F 55% 29.97 in 10.0 mi SW 9.2 mph - N/A   Overcast
4:53 PM 88.0 °F 92.1 °F 69.1 °F 53% 29.95 in 10.0 mi SSW 10.4 mph - N/A   Mostly Cloudy
5:53 PM 86.0 °F 88.8 °F 66.9 °F 53% 29.94 in 10.0 mi SW 9.2 mph - N/A   Scattered Clouds
6:53 PM 86.0 °F 89.4 °F 68.0 °F 55% 29.94 in 10.0 mi SSW 9.2 mph - N/A   Clear
7:53 PM 82.0 °F 84.5 °F 66.9 °F 60% 29.94 in 10.0 mi SSW 6.9 mph - N/A   Clear
8:53 PM 79.0 °F - 69.1 °F 72% 29.96 in 10.0 mi South 5.8 mph - N/A   Scattered Clouds
9:53 PM 79.0 °F - 69.1 °F 72% 29.98 in 10.0 mi South 11.5 mph - N/A   Partly Cloudy
10:53 PM 78.1 °F - 69.1 °F 74% 29.99 in 10.0 mi South 11.5 mph 18.4 mph N/A   Partly Cloudy
11:53 PM 77.0 °F - 69.1 °F 76% 29.98 in 10.0 mi SSW 8.1 mph - N/A   Overcast